Regional Weather Roundup
Issued by NWS

Home | Current Version | Previous Version | Text Only | Print | Product List | Glossary On
Versions: 1 2 3 4 5 6 7 8 9 10 11 12 13 14 15 16 17 18 19 20 21 22 23 24 25 26 27 28 29 30 31 32 33 34 35 36 37 38 39 40 41 42 43 44 45 46 47 48 49 50
816
ASUS44 KBMX 110610
RWRAL

ALABAMA REGIONAL WEATHER ROUNDUP
NATIONAL WEATHER SERVICE BIRMINGHAM AL
1200 AM CST THU FEB 11 2016

NOTE: "FAIR" INDICATES FEW OR NO CLOUDS BELOW 12,000 FEET
WITH NO SIGNIFICANT WEATHER AND/OR OBSTRUCTIONS TO VISIBILITY.

THE REMARK "TC" DENOTES TEMPERATURE IN DEGREES CELSIUS.

ALZ001>011-014-016>018-020-110700-
NORTH ALABAMA

CITY           SKY/WX    TMP DP  RH WIND       PRES   REMARKS
MUSCLE SHOALS  CLEAR     27  16  63 E6        30.17F WCI  20
6HR MIN TEMP:  26; 6HR MAX TEMP:  35;

HUNTSVILLE     CLEAR     27  17  66 E7        30.16F WCI  19
6HR MIN TEMP:  26; 6HR MAX TEMP:  33;

DECATUR        CLEAR     25  19  78 E5        30.17F WCI  19
6HR MIN TEMP:  23; 6HR MAX TEMP:  32;

HALEYVILLE     FAIR      26  14  60 CALM      30.15F
6HR MIN TEMP:  24; 6HR MAX TEMP:  32;

GADSDEN        CLEAR     24  19  81 CALM      30.19F
6HR MIN TEMP:  23; 6HR MAX TEMP:  36;

$$

ALZ012-013-022-023-030>036-040>044-110700-
WEST CENTRAL ALABAMA

CITY           SKY/WX    TMP DP  RH WIND       PRES   REMARKS
TUSCALOOSA     CLEAR     29  20  69 CALM      30.19F
6HR MIN TEMP:  28; 6HR MAX TEMP:  40;

$$

ALZ015-024>027-033>036-040>044-110700-
CENTRAL ALABAMA

CITY           SKY/WX    TMP DP  RH WIND       PRES   REMARKS
BIRMINGHAM     CLEAR     30  17  58 CALM      30.19F
6HR MIN TEMP:  28; 6HR MAX TEMP:  40;

MONTGOMERY     PTCLDY    31  22  69 CALM      30.20S
6HR MIN TEMP:  30; 6HR MAX TEMP:  42;

SHELBY CO ARPT CLEAR     30  22  72 CALM      30.18F
6HR MIN TEMP:  30; 6HR MAX TEMP:  40;

MAXWELL AFB    PTCLDY    30  26  86 N2        30.19R
6HR MIN TEMP:  30; 6HR MAX TEMP:  41;

GREENVILLE     FAIR      33  22  63 CALM      30.17F
6HR MIN TEMP:  32; 6HR MAX TEMP:  44;

$$

ALZ019-021-028-029-037-038-045>048-110700-
EAST CENTRAL ALABAMA

CITY           SKY/WX    TMP DP  RH WIND       PRES   REMARKS
ANNISTON       CLEAR     27  17  66 CALM      30.19F
6HR MIN TEMP:  27; 6HR MAX TEMP:  39;

ALEXANDER CITY CLEAR     26  21  83 CALM      30.19S
6HR MIN TEMP:  26; 6HR MAX TEMP:  37;

AUBURN         CLEAR     29  20  69 CALM      30.20S
6HR MIN TEMP:  29; 6HR MAX TEMP:  39;

$$

ALZ051>064-110700-
SOUTHWEST ALABAMA

CITY           SKY/WX    TMP DP  RH WIND       PRES   REMARKS
MOBILE         CLEAR     45  37  73 SW9       30.21S
6HR MIN TEMP:  42; 6HR MAX TEMP:  47;

BROOKLEY FIELD CLEAR     47  36  65 SW5       30.22F
6HR MIN TEMP:  45; 6HR MAX TEMP:  50;

EVERGREEN      CLEAR     33  27  78 CALM      30.20S
6HR MIN TEMP:  33; 6HR MAX TEMP:  46;

$$

ALZ049-050-065>069-110700-
SOUTHEAST ALABAMA

CITY           SKY/WX    TMP DP  RH WIND       PRES   REMARKS
DOTHAN         CLEAR     37  18  46 SW6       30.24S WCI  32
6HR MIN TEMP:  36; 6HR MAX TEMP:  44;

OZARK          CLEAR     34  22  60 SW1       30.20S
6HR MIN TEMP:  34; 6HR MAX TEMP:  42;

TROY           CLEAR     30  23  75 CALM      30.20F
6HR MIN TEMP:  30; 6HR MAX TEMP:  43;

EUFAULA        FAIR      28  22  78 CALM      30.20S
6HR MIN TEMP:  27; 6HR MAX TEMP:  40;

$$




USA.gov is the U.S. government's official web portal to all federal, state and local government web resources and services.